Flag for Switzerland Weather past 2 weeks in Einsiedeln, Schwyz, Switzerland

Now
68 °F

Partly sunny.


Feels Like: 68 °F
Forecast: 34 / 46 °F
Wind: 21 mph from Southeast

Location: Altdorf

Current Time: Apr 27, 2015 at 6:15:05 PM

Latest Report: Apr 27, 2015 at 5:00 PM


Visibility: 14 mi

Pressure: 29.41 "Hg

Humidity: 34%

Dew point: 39 °F

Location of EinsiedelnLocation

Historic Weather in Einsiedeln — Graph

°F

Einsiedeln temperature yesterday

Maximum temperature yesterday: 69 °F (at 5:00 PM)
Minimum temperature yesterday: 49 °F (at 6:00 AM)
Average temperature yesterday: 59 °F

Past Weeks' High & Low Weather Summary

 TemperatureHumidityPressure
High70 °F (Apr 15, 5:00 PM)95% (Apr 19, 4:00 AM)30.50 "Hg (Apr 19, 4:00 AM)
Low34 °F (Apr 19, 6:00 AM)27% (Apr 14, 4:00 PM)29.41 "Hg (Apr 27, 5:00 PM)
Average54 °F65%30.09 "Hg
* Reported Apr 12 5:00 PM — Apr 27 5:00 PM, Einsiedeln, Weather by CustomWeather, © 2015

Note: Actual official high and low records may vary slightly from our data, if they occured in-between our weather recording intervals... More about our weather records

Advertising

Einsiedeln weather history for previous 24 hours

 ConditionsComfort  
Time TempWeatherWind HumidityBarometerVisibility
5:00 PM
Mon, Apr 27
68 °FPartly sunny.21 mph34%29.41 "Hg14 mi
4:00 PM66 °FMild.5 mph62%29.44 "HgN/A
3:00 PM60 °FCool.8 mph73%29.50 "HgN/A
2:00 PM61 °FOvercast.8 mph69%29.50 "Hg14 mi
1:00 PM59 °FCool.7 mph74%29.54 "HgN/A
12:00 PM60 °FCool.7 mph74%29.55 "HgN/A
11:00 AM63 °FPartly sunny.10 mph67%29.55 "Hg16 mi
10:00 AM58 °FCool.6 mph76%29.57 "HgN/A
9:00 AM57 °FCool.7 mph77%29.59 "HgN/A
8:00 AM55 °FOvercast.2 mph79%29.59 "Hg12 mi
7:00 AM55 °FCool.3 mph76%29.58 "HgN/A
6:00 AM54 °FCool.6 mph81%29.58 "HgN/A
5:00 AM55 °FPassing clouds.14 mph79%29.59 "Hg19 mi
4:00 AM64 °FMild.17 mph36%29.57 "HgN/A
3:00 AM64 °FMild.14 mph38%29.58 "HgN/A
2:00 AM65 °FPassing clouds.18 mph36%29.59 "Hg19 mi
1:00 AM64 °FMild.17 mph39%29.60 "HgN/A
12:00 AM65 °FMild.20 mph38%29.61 "HgN/A
11:00 PM
Sun, Apr 26
64 °FPassing clouds.17 mph40%29.63 "Hg19 mi
10:00 PM64 °FMild.13 mph40%29.65 "HgN/A
9:00 PM65 °FMild.16 mph38%29.65 "HgN/A
8:00 PM65 °FScattered clouds.20 mph40%29.63 "Hg19 mi
7:00 PM66 °FMild.23 mph37%29.62 "HgN/A
6:00 PM68 °FMild.20 mph38%29.62 "HgN/A
Weather by CustomWeather, © 2015

See weather overviewHow to use our weather pages